Location: *
(34.6903°N, 135.5184°E)
Time: 00:44:44
(UTC+00:00)

H-II Stage 2 - Pass Details

Date: 22 September 2019
Orbit: 298 x 28233 km, 28.6° (Epoch: 18 October)

Event Time Altitude Azimuth Distance (km) Brightness Sun altitude
Exits shadow 19:42:33 17° 234° (SW) 1,718 3.8 -13.8°
Maximum altitude 19:45:21 32° 179° (S) 1,799 4.3 -13.2°
Drops below altitude 10° 19:58:43 10° 123° (ESE) 7,153 8.2 -10.5°
Sets 20:13:42 0° 118° (ESE) 12,421 9.7 -7.5°
